Voltar ao catálogo

SL-6 R/B(2)

AtivoHEO
NORAD 29261·ROCKET BODY·🇷🇺 Russia

Lançado Jul 21, 2006 de Plesetsk Cosmodrome

Loading…

Próximas Passagens (próximas 24 horas)

TLE

AtualizadoSource: Space-Track

Época: Sep 13, 2026, 15:36 UTC

1 29261U 06030B   26256.65017302 -.00000604  00000-0 -16057-2 0  9997
2 29261  61.7410 152.1383 7135877 263.6055  18.2816  2.05495020151098

Acompanhe SL-6 R/B(2) em tempo real com AllMySat

Download on the App Store